Showing default

DMC 3-FM3, 40717

Orbit data source: Space-Track

DMC 3-FM3, 40717 is a payload satellite owned by DMCii (UK) in SSO that was launched on Fri, 10 Jul 2015 UTC via a PSLV-XL launch vehicle from the Sirharikota (SRI). Payload-class satellites include a variety of spacecraft equipped with specific instruments for various scientific and technological missions. These include communications satellites like Starlink; space stations such as the ISS; scientific satellites like the Hubble; Earth observation satellites from companies like Planet Labs, Umbra, and HawkEye 360; GPS; miniature CubeSats for education and research; and military/defense satellites.

Loading next visibility...
Identifier
40717, 2015-032C
Orbit
SSO
Country
Flag of UKUK
Related business
Manufacturer
SSTL (Astrium)
Mission
Operational Commercial Imaging
Bus & Motor
SSTL-300S1, Unknown motor
Mass
447 kg wet, 435 kg dry
Launch date (UTC)
2015-07-10 (11 years ago)
Launch vehicle
PSLV-XL
Launch site
Sirharikota (SRI)
Object type
Payload
Rocket body
Debris
Shape & HBR
Hept Cyl + Cyl, 1.3 m
Radar Cross Section
2.356 m², Large (>1 m²)

Expand to show TLE details & history
Last TLE update: 21 hours ago

TLE from 21 hours ago
0 DMC 3-FM3
1 40717U 15032C   26172.56102530 -.00000160  00000-0 -12501-4 0  9992
2 40717  97.6560  40.8963 0006592  53.3530 306.8291 14.85735864590560
Epoch: 2026-06-21T13:27Z
TLE epoch observation values (Epoch: 2026-06-21T13:27:52.585Z)
Latitude
-0.00005°
Longitude
-70.83233°
Altitude
611.553 km
Speed
7.555 km/s
True Right ascension
02h 43m 35s
True Declination
0° 00' 00"
Sunlit
Object was in daylight at epoch
Visualization orbit readout
Latitude
Unknown
Longitude
Unknown
Altitude
Unknown
Speed
Unknown
Apparent Right ascension
Unknown
Apparent Declination
Unknown
Sunlit
N/A
Visualization observer readout
Local Sidereal Time
21:41:37
Azimuth
Unknown
Elevation
Unknown
Doppler factor
Unknown
Orbital elements
Apogee altitude
612.905 km
Perigee altitude
603.694 km
Semi-major axis
6,986.436 km
Eccentricity
0.00066
Inclination
97.656°
RAAN
40.8963°
Arg. of periapsis
53.353°
True anomaly
306.76861°
Mean anomaly
306.8291°
Eccentric anomaly
306.79886°
Mean motion
3.71672 °/min
Orbital period
96.86 mins
BSTAR
-0.000012501
Loading maneuver chart data...
Computing Atmospheric mass density...
Loading historical data...
Loading historical data...
Loading historical data...
Loading historical data...
Loading historical data...
Loading historical data...
Loading historical data...
Other satellites on launch #32 in the year 2015 (2015-07-10 UTC)

Documentation

Showing up to 5 results
|